Regional Weather Roundup
Issued by NWS

Home | Current Version | Previous Version | Graphics & Text | Print | Product List | Glossary On
Versions: 1 2 3 4 5 6 7 8 9 10 11 12 13 14 15 16 17 18 19 20 21 22 23 24 25 26 27 28 29 30 31 32 33 34 35 36 37 38 39 40 41 42 43 44 45 46 47 48 49 50
000
ASUS45 KABQ 030601
RWRNM
NEW MEXICO REGIONAL WEATHER ROUNDUP
NATIONAL WEATHER SERVICE ALBUQUERQUE NM
1200 AM MDT WED JUN 03 2015

NOTE: "FAIR" MEANS FEW OR NO CLOUDS BELOW 12,000 FEET AGL WITH NO
       SIGNIFICANT WEATHER OR OBSTRUCTIONS TO VISION.

      THIS PRODUCT IS RELEASED AS TWO VERSIONS.  ONE VERSION NEAR
      THE TOP OF THE HOUR CONTAINING PRELIMINARY DATA FROM ALBUQUERQUE
      AND OTHER STATIONS.  A FINAL VERSION WITH ADDITIONAL DATA IS
      ISSUED ABOUT 10 MINUTES AFTER THE HOUR.

NMZ501-503-504-510>518-030700-
NORTHWEST PLATEAU/NORTHCENTRAL MOUNTAINS

CITY           SKY/WX    TMP DP  RH WIND       PRES   REMARKS
FARMINGTON     CLEAR     55  29  36 N7        30.02R
6HR MIN TEMP:  55; 6HR MAX TEMP:  85;

SANTA FE       CLEAR     55  25  31 N3        30.08S
6HR MIN TEMP:  54; 6HR MAX TEMP:  85;

TAOS           CLEAR     50  23  34 E8        30.15S

$$
NMZ402-403-502-505>509-030700-
WESTCENTRAL MOUNTAINS/SOUTHWEST MOUNTAINS

CITY           SKY/WX    TMP DP  RH WIND       PRES   REMARKS
GALLUP         CLEAR     57  20  23 CALM      30.14S
6HR MIN TEMP:  53; 6HR MAX TEMP:  82;

SILVER CITY      N/A     63  21  20 NW10      30.09S

$$
NMZ407-409-411-412-030700-
SOUTHERN DESERTS

CITY           SKY/WX    TMP DP  RH WIND       PRES   REMARKS
DEMING         CLEAR     76  20  12 W15       29.99F
6HR MIN TEMP:  71; 6HR MAX TEMP:  94;

HOLLOMAN AFB   CLEAR     75  17  11 SE8       29.93S
ALAMOGORDO     CLEAR     72  18  13 SE9       29.96S
T OR C         CLEAR     73  15  11 SW6       29.99R
6HR MIN TEMP:  71; 6HR MAX TEMP:  94;


$$
NMZ519>523-030700-
CENTRAL VALLEYS/CENTRAL HIGHLANDS

CITY           SKY/WX    TMP DP  RH WIND       PRES   REMARKS
ALBUQUERQUE    CLEAR     73  29  19 W5        30.02S
6HR MIN TEMP:  69; 6HR MAX TEMP:  89;

DOUBLE EAGLE   CLEAR     61  26  26 CALM      30.06S
CLINES CORNERS CLEAR     64  17  16 NW3       30.12F
6HR MIN TEMP:  59; 6HR MAX TEMP:  81;

BELEN          FAIR      65  18  16 NW8       30.01
6HR MIN TEMP:  64; 6HR MAX TEMP:  91;

SOCORRO        NOT AVBL

$$
NMZ524>526-539-540-030700-
SOUTHCENTRAL MOUNTAINS

CITY           SKY/WX    TMP DP  RH WIND       PRES   REMARKS
RUIDOSO        NOT AVBL

$$
NMZ527>531-030700-
NORTHEAST HIGHLANDS/NORTHEAST PLAINS

CITY           SKY/WX    TMP DP  RH WIND       PRES   REMARKS
LAS VEGAS      CLEAR     60  24  25 W8        30.11F
6HR MIN TEMP:  57; 6HR MAX TEMP:  79;

RATON          CLEAR     59  28  30 N6        30.04S
6HR MIN TEMP:  59; 6HR MAX TEMP:  85;

CLAYTON        CLEAR     65  52  62 SW9       29.95S
6HR MIN TEMP:  61; 6HR MAX TEMP:  86;


$$
NMZ532>537-030700-
EASTCENTRAL PLAINS

CITY           SKY/WX    TMP DP  RH WIND       PRES   REMARKS
TUCUMCARI      CLEAR     74  54  49 S12       29.91S
6HR MIN TEMP:  69; 6HR MAX TEMP:  91;

CANNON AFB     CLEAR     68  60  73 S8        29.98S
6HR MIN TEMP:  68; 6HR MAX TEMP:  88; 6HR PCP: TRACE;

CLOVIS AIRPORT CLEAR     64  59  82 S7          N/A

$$
NMZ028-029-538-030700-
SOUTHEAST PLAINS

CITY           SKY/WX    TMP DP  RH WIND       PRES   REMARKS
ROSWELL        CLEAR     72  53  51 S8        29.92S
6HR MIN TEMP:  71; 6HR MAX TEMP:  95;

ARTESIA        CLEAR     73  55  53 SE12      29.93S
CARLSBAD       CLEAR     74  53  48 SE12      29.91F
6HR MIN TEMP:  74; 6HR MAX TEMP:  96;

HOBBS          CLEAR     70  59  68 S9        29.97S


$$



USA.gov is the U.S. government's official web portal to all federal, state and local government web resources and services.